When you browse on this site, cookies collect data to enhance your experience and personalize the content and advertising you see.
Visit our Privacy Policy to learn more. By continuing to use the site, you agree to this use of cookies and data.
  • In Österreich
  • Länderverzeichnis
  • Für 7 Tage
  • Wassertemperatur
  • Satellitenkarten
  • Wetterkarte
  • News
  • Widgets
  • user-avatar
    Anmelden

    Stündliche Wetter Tanger

    Heute, 13 Dezember, Donnerstag

    Zeit Temperatur Niederschläge Wind Luftdruck Luftfeuchtigkeit
    00:00 +14°C° 0 mm 5 m/S 765 mmHg 85%
    01:00 +14°C° 0 mm 5 m/S 765 mmHg 85%
    02:00 +14°C° 0 mm 5 m/S 765 mmHg 84%
    03:00 +14°C° 0 mm 6 m/S 764 mmHg 84%
    04:00 +14°C° 0.1 mm 7 m/S 764 mmHg 85%
    05:00 +13°C° 0.1 mm 8 m/S 763 mmHg 86%
    06:00 +13°C° 0.1 mm 8 m/S 763 mmHg 86%
    07:00 +13°C° 0.4 mm 9 m/S 763 mmHg 86%
    08:00 +14°C° 0.4 mm 10 m/S 762 mmHg 86%
    09:00 +14°C° 0.4 mm 11 m/S 762 mmHg 86%
    10:00 +14°C° 1.5 mm 11 m/S 762 mmHg 85%
    11:00 +14°C° 1.5 mm 10 m/S 762 mmHg 84%
    12:00 +14°C° 1.5 mm 10 m/S 763 mmHg 84%
    13:00 +13°C° 0.3 mm 9 m/S 763 mmHg 79%
    14:00 +13°C° 0.3 mm 9 m/S 763 mmHg 75%
    15:00 +13°C° 0.3 mm 8 m/S 763 mmHg 70%
    16:00 +13°C° 0 mm 8 m/S 763 mmHg 71%
    17:00 +12°C° 0 mm 7 m/S 764 mmHg 72%
    18:00 +11°C° 0 mm 7 m/S 764 mmHg 72%
    19:00 +11°C° 0 mm 7 m/S 765 mmHg 72%
    20:00 +11°C° 0 mm 7 m/S 766 mmHg 72%
    21:00 +11°C° 0 mm 6 m/S 766 mmHg 72%
    22:00 +11°C° 0 mm 6 m/S 766 mmHg 73%
    23:00 +11°C° 0 mm 6 m/S 766 mmHg 73%

    Morgen, 14 Dezember, Freitag

    Zeit Temperatur Niederschläge Wind Luftdruck Luftfeuchtigkeit
    00:00 +11°C° 0 mm 6 m/S 766 mmHg 74%
    01:00 +10°C° 0 mm 6 m/S 766 mmHg 75%
    02:00 +10°C° 0 mm 6 m/S 766 mmHg 76%
    03:00 +10°C° 0 mm 6 m/S 766 mmHg 77%
    04:00 +10°C° 0 mm 6 m/S 767 mmHg 77%
    05:00 +10°C° 0 mm 6 m/S 767 mmHg 77%
    06:00 +9°C° 0 mm 6 m/S 767 mmHg 78%
    07:00 +10°C° 0 mm 5 m/S 768 mmHg 76%
    08:00 +12°C° 0 mm 5 m/S 768 mmHg 74%
    09:00 +12°C° 0 mm 4 m/S 769 mmHg 72%
    10:00 +13°C° 0 mm 4 m/S 769 mmHg 68%
    11:00 +14°C° 0 mm 5 m/S 769 mmHg 64%
    12:00 +15°C° 0 mm 5 m/S 769 mmHg 61%
    13:00 +15°C° 0 mm 5 m/S 769 mmHg 61%
    14:00 +15°C° 0 mm 5 m/S 769 mmHg 61%
    15:00 +15°C° 0 mm 5 m/S 768 mmHg 62%
    16:00 +14°C° 0 mm 5 m/S 768 mmHg 66%
    17:00 +13°C° 0 mm 4 m/S 769 mmHg 70%
    18:00 +12°C° 0 mm 4 m/S 769 mmHg 74%
    19:00 +11°C° 0 mm 4 m/S 769 mmHg 75%
    20:00 +11°C° 0 mm 3 m/S 770 mmHg 75%
    21:00 +11°C° 0 mm 3 m/S 770 mmHg 76%
    22:00 +11°C° 0 mm 3 m/S 770 mmHg 76%
    23:00 +11°C° 0 mm 3 m/S 770 mmHg 77%

    übermorgen, 15 Dezember, Samstag

    Zeit Temperatur Niederschläge Wind Luftdruck Luftfeuchtigkeit
    00:00 +10°C° 0 mm 3 m/S 770 mmHg 77%
    01:00 +10°C° 0 mm 3 m/S 770 mmHg 77%
    02:00 +10°C° 0 mm 3 m/S 769 mmHg 77%
    03:00 +10°C° 0 mm 3 m/S 769 mmHg 77%
    04:00 +10°C° 0 mm 3 m/S 769 mmHg 77%
    05:00 +10°C° 0 mm 3 m/S 769 mmHg 78%
    06:00 +10°C° 0 mm 2 m/S 769 mmHg 78%
    07:00 +12°C° 0 mm 2 m/S 769 mmHg 75%
    08:00 +12°C° 0 mm 2 m/S 769 mmHg 72%
    09:00 +13°C° 0 mm 2 m/S 770 mmHg 70%
    10:00 +15°C° 0 mm 2 m/S 770 mmHg 65%
    11:00 +16°C° 0 mm 2 m/S 769 mmHg 59%
    12:00 +18°C° 0 mm 2 m/S 769 mmHg 54%
    13:00 +18°C° 0 mm 2 m/S 769 mmHg 54%
    14:00 +18°C° 0 mm 2 m/S 768 mmHg 55%
    15:00 +18°C° 0 mm 2 m/S 768 mmHg 55%
    16:00 +17°C° 0 mm 2 m/S 768 mmHg 61%
    17:00 +15°C° 0 mm 2 m/S 767 mmHg 66%
    18:00 +14°C° 0 mm 1 m/S 767 mmHg 71%
    19:00 +14°C° 0 mm 1 m/S 768 mmHg 71%
    20:00 +14°C° 0 mm 1 m/S 768 mmHg 71%
    21:00 +14°C° 0 mm 1 m/S 768 mmHg 71%
    22:00 +14°C° 0 mm 2 m/S 768 mmHg 71%
    23:00 +14°C° 0 mm 2 m/S 768 mmHg 71%

    16 Dezember, Sonntag

    Zeit Temperatur Niederschläge Wind Luftdruck Luftfeuchtigkeit
    00:00 +13°C° 0 mm 2 m/S 768 mmHg 72%
    01:00 +13°C° 0 mm 2 m/S 767 mmHg 72%
    02:00 +13°C° 0 mm 2 m/S 767 mmHg 72%
    03:00 +13°C° 0 mm 2 m/S 767 mmHg 73%
    04:00 +13°C° 0 mm 2 m/S 767 mmHg 73%
    05:00 +13°C° 0 mm 2 m/S 767 mmHg 73%
    06:00 +13°C° 0 mm 2 m/S 767 mmHg 73%
    07:00 +12°C° 0 mm 3 m/S 767 mmHg 72%
    08:00 +13°C° 0 mm 3 m/S 767 mmHg 70%
    09:00 +14°C° 0 mm 3 m/S 768 mmHg 69%
    10:00 +16°C° 0 mm 3 m/S 768 mmHg 66%
    11:00 +17°C° 0 mm 3 m/S 768 mmHg 63%
    12:00 +19°C° 0 mm 4 m/S 767 mmHg 60%
    13:00 +19°C° 0 mm 4 m/S 767 mmHg 61%
    14:00 +19°C° 0 mm 4 m/S 767 mmHg 63%
    15:00 +19°C° 0 mm 4 m/S 766 mmHg 65%
    16:00 +18°C° 0 mm 4 m/S 767 mmHg 71%
    17:00 +16°C° 0 mm 3 m/S 767 mmHg 77%
    18:00 +14°C° 0 mm 3 m/S 767 mmHg 83%
    19:00 +14°C° 0.1 mm 3 m/S 768 mmHg 84%
    20:00 +14°C° 0.1 mm 4 m/S 768 mmHg 85%
    21:00 +14°C° 0.1 mm 4 m/S 769 mmHg 85%
    22:00 +14°C° 0.1 mm 4 m/S 769 mmHg 84%
    23:00 +13°C° 0.1 mm 4 m/S 769 mmHg 84%

    17 Dezember, Montag

    Zeit Temperatur Niederschläge Wind Luftdruck Luftfeuchtigkeit
    00:00 +13°C° 0.1 mm 4 m/S 769 mmHg 83%
    01:00 +13°C° 0 mm 3 m/S 769 mmHg 83%
    02:00 +13°C° 0 mm 3 m/S 769 mmHg 83%
    03:00 +14°C° 0 mm 3 m/S 769 mmHg 82%
    04:00 +13°C° 0 mm 3 m/S 769 mmHg 83%
    05:00 +13°C° 0 mm 3 m/S 769 mmHg 84%
    06:00 +13°C° 0 mm 3 m/S 769 mmHg 86%
    07:00 +13°C° 0 mm 3 m/S 769 mmHg 84%
    08:00 +15°C° 0 mm 2 m/S 769 mmHg 82%
    09:00 +15°C° 0 mm 2 m/S 769 mmHg 80%
    10:00 +16°C° 0 mm 2 m/S 769 mmHg 72%
    11:00 +17°C° 0 mm 3 m/S 769 mmHg 65%
    12:00 +19°C° 0 mm 3 m/S 769 mmHg 58%
    13:00 +19°C° 0 mm 3 m/S 769 mmHg 57%
    14:00 +19°C° 0 mm 3 m/S 768 mmHg 56%
    15:00 +19°C° 0 mm 3 m/S 768 mmHg 55%
    16:00 +17°C° 0 mm 2 m/S 768 mmHg 60%
    17:00 +16°C° 0 mm 2 m/S 768 mmHg 65%
    18:00 +15°C° 0 mm 2 m/S 768 mmHg 71%
    19:00 +14°C° 0 mm 2 m/S 768 mmHg 72%
    20:00 +14°C° 0 mm 2 m/S 768 mmHg 73%
    21:00 +14°C° 0 mm 2 m/S 768 mmHg 74%
    22:00 +14°C° 0 mm 2 m/S 768 mmHg 74%
    23:00 +13°C° 0 mm 2 m/S 768 mmHg 75%

    18 Dezember, Dienstag

    Zeit Temperatur Niederschläge Wind Luftdruck Luftfeuchtigkeit
    00:00 +13°C° 0 mm 2 m/S 768 mmHg 75%
    01:00 +13°C° 0 mm 2 m/S 768 mmHg 76%
    02:00 +13°C° 0 mm 2 m/S 767 mmHg 76%
    03:00 +12°C° 0 mm 3 m/S 767 mmHg 76%
    04:00 +12°C° 0 mm 3 m/S 767 mmHg 76%
    05:00 +13°C° 0 mm 2 m/S 767 mmHg 76%
    06:00 +13°C° 0 mm 2 m/S 766 mmHg 76%
    07:00 +14°C° 0 mm 2 m/S 767 mmHg 74%
    08:00 +14°C° 0 mm 2 m/S 767 mmHg 72%
    09:00 +15°C° 0 mm 2 m/S 767 mmHg 70%
    10:00 +16°C° 0 mm 2 m/S 767 mmHg 66%
    11:00 +18°C° 0 mm 2 m/S 767 mmHg 63%
    12:00 +19°C° 0 mm 2 m/S 767 mmHg 60%
    13:00 +19°C° 0 mm 3 m/S 766 mmHg 60%
    14:00 +19°C° 0 mm 4 m/S 766 mmHg 60%
    15:00 +19°C° 0 mm 4 m/S 765 mmHg 60%
    16:00 +18°C° 0 mm 4 m/S 765 mmHg 67%
    17:00 +17°C° 0 mm 4 m/S 765 mmHg 73%
    18:00 +14°C° 0 mm 4 m/S 765 mmHg 80%
    19:00 +14°C° 0 mm 4 m/S 765 mmHg 79%
    20:00 +14°C° 0 mm 5 m/S 765 mmHg 78%
    21:00 +14°C° 0 mm 5 m/S 765 mmHg 77%
    22:00 +14°C° 0 mm 6 m/S 765 mmHg 75%
    23:00 +14°C° 0 mm 6 m/S 765 mmHg 73%
    Mehr zeigen